STARLINK-1575, 46349

Orbit data source: Space-Track

STARLINK-1575, 46349 is a payload satellite owned by SpaceX/Seattle (US) in LEO that was launched on Thu, 03 Sep 2020 UTC via an FALCON 9 launch vehicle from the Air Force Eastern Test Range (AFETR). Payload-class satellites include a variety of spacecraft equipped with specific instruments for various scientific and technological missions. These include communications satellites like Starlink; space stations such as the ISS; scientific satellites like the Hubble; Earth observation satellites from companies like Planet Labs, Umbra, and HawkEye 360; GPS; miniature CubeSats for education and research; and military/defense satellites.

Loading next visibility...
Identifier
46349, 2020-062AA
Orbit
LEO
Last TLE update
15 hours ago
Origin
Manufacturer
SpaceX/Seattle
Mission
Operational Commercial Communications
Bus & Motor
STARLINK, Unknown motor
Mass
260 kg wet, ~248 kg dry
Launch date (UTC)
2020-09-03 (5 years ago)
Launch vehicle
FALCON 9
Launch site
Air Force Eastern Test Range (AFETR)
Object type
Payload
Rocket body
Debris
Shape & HBR
Box + 1 Pan, 8.86 m
Radar Cross Section
13.562 m², Large (>1 m²)

Expand to show TLE details & history

TLE from 15 hours ago
0 STARLINK-1575
1 46349U 20062AA  25128.66353258 -.00002581  00000-0 -15447-3 0  9994
2 46349  53.0568 260.9350 0000728  97.4818 262.6254 15.06392743258961
Epoch: 2025-05-08T15:55Z
Definitive object data (Epoch: 2025-05-08T15:55:29.214Z)
Latitude
-0.00002°
Longitude
155.33247°
Altitude
548.178 km
Speed
7.589 km/s
True Right ascension
17h 23m 44s
True Declination
0° 00' 00"
Sunlit
Object was in full shadow at TLE epoch
Visualization TLE readout
Latitude
8.24703°
Longitude
-33.71191°
Altitude
547.257 km
Speed
7.59 km/s
Apparent Right ascension
04h 06m 42s
Apparent Declination
-15° 01' 15"
Sunlit
Object is in daylight
Visualization observer readout
Local Sidereal Time
15:09:15
Azimuth
329.179° NNW
Elevation
-62.119°
Doppler factor
1
Orbital elements
Apogee altitude
548.008 km
Perigee altitude
547 km
Semi-major axis
6,925.641 km
Eccentricity
0.0000728
Inclination
53.0568°
RAAN
260.935°
Arg. of periapsis
97.4818°
True anomaly
262.61713°
Mean anomaly
262.6254°
Eccentric anomaly
262.62126°
Mean motion
3.76576 °/min
BSTAR
-0.00015447
Orbital period
95.6 mins
Loading maneuver chart data...
Loading SW <> Apogee altitude chart data...
Loading historical data...
Loading historical data...
Loading historical data...
Loading historical data...
Loading historical data...
Loading historical data...
Loading historical data...

STARLINK-1575 Visibility forecast

Observer location: undefined°, undefined°

Span
Click to sort rows by Start time (UTC) header in descending order
Start Az.
Max El. time (UTC)
Max El. Az.
Max El.
End time (UTC)
End Az.
8 mins2025-05-09 11:11:19.859Z216.463° SW2025-05-09 11:15:19.859Z137.51° SSE41.256°2025-05-09 11:19:19.859Z56.444° ENE
5 mins2025-05-09 12:53:19.859Z295.595° NW2025-05-09 12:55:19.859Z339.685° N23.43°2025-05-09 12:58:19.859Z30.092° NE
4 mins2025-05-09 16:15:19.859Z353.13° N2025-05-09 16:16:19.859Z10.771° NNE16.787°2025-05-09 16:19:19.859Z59.287° ENE
6 mins2025-05-09 17:54:19.859Z321.071° NNW2025-05-09 17:57:19.859Z71.496° E39.786°2025-05-09 18:00:19.859Z116.524° SE
4 mins2025-05-09 19:34:19.859Z262.715° W2025-05-09 19:36:19.859Z226.721° WSW17.355°2025-05-09 19:38:19.859Z194.405° SSW
|